This is the latest recevied weather packets stored in our database for station/object UB3AVW-10. If no packets are shown the sender has not sent any weather packets the latest 1 day(s).
| Time | Temp. | Humidity | Pressure | Rain* | Wind** | Luminosity | Snow |
|---|---|---|---|---|---|---|---|
| 1778025715 | 13.89° C | 82% | 984.3 hPa | - | 2.68 m/s, 226° | - | - |
| 1778023286 | 13.89° C | 82% | 984.3 hPa | - | 2.68 m/s, 170° | - | - |
| 1778022678 | 13.89° C | 83% | 984.4 hPa | - | 2.68 m/s, 170° | - | - |
| 1778022072 | 14.44° C | 84% | 984.4 hPa | - | 2.68 m/s, 170° | - | - |
| 1778020553 | 15° C | 82% | 984.4 hPa | - | 2.68 m/s, 170° | - | - |
| 1778020250 | 15° C | 79% | 984.4 hPa | - | 2.68 m/s, 170° | - | - |
| 1778019035 | 15.56° C | 77% | 984.4 hPa | - | 2.68 m/s, 170° | - | - |
| 1778018732 | 15.56° C | 77% | 984.4 hPa | - | 2.68 m/s, 170° | - | - |
| 1778018429 | 15.56° C | 77% | 984.4 hPa | - | 2.68 m/s, 170° | - | - |
| 1778016302 | 16.11° C | 77% | 984.5 hPa | - | 2.68 m/s, 218° | - | - |
| 1778015998 | 16.11° C | 77% | 984.5 hPa | - | 2.68 m/s, 218° | - | - |
| 1778015089 | 16.11° C | 77% | 984.6 hPa | - | 2.68 m/s, 218° | - | - |
| 1778014909 | 16.11° C | 77% | 984.6 hPa | - | 1.79 m/s, 225° | - | - |
| 1778014785 | 16.11° C | 77% | 984.6 hPa | - | 1.79 m/s, 225° | - | - |
| 1778014178 | 16.11° C | 77% | 984.6 hPa | - | 1.79 m/s, 225° | - | - |
| 1778013874 | 16.11° C | 77% | 984.6 hPa | - | 1.79 m/s, 225° | - | - |
| 1778012053 | 16.11° C | 77% | 984.6 hPa | - | 1.79 m/s, 190° | - | - |
| 1778011440 | 16.11° C | 77% | 984.6 hPa | - | 1.79 m/s, 235° | - | - |
| 1778011320 | 16.11° C | 77% | 984.6 hPa | - | 1.79 m/s, 235° | - | - |
| 1778010529 | 16.11° C | 72% | 984.6 hPa | - | 1.79 m/s, 235° | - | - |
| 1778009315 | 16.11° C | 72% | 984.5 hPa | - | 1.79 m/s, 235° | - | - |
| 1778008708 | 16.11° C | 72% | 984.6 hPa | - | 1.79 m/s, 235° | - | - |
| 1778007494 | 17.78° C | 68% | 984.7 hPa | - | 1.79 m/s, 238° | - | - |
| 1778006887 | 17.78° C | 68% | 984.7 hPa | - | 1.79 m/s, 238° | - | - |
| 1778005976 | 17.78° C | 68% | 984.6 hPa | - | 1.79 m/s, 238° | - | - |
* Rain since midnight (hover to see other rain measurements)
** Current wind speed in m/s (hover to see current wind gust speed)